﻿_id,日時,平均風速(m/s),平均風向,最大瞬間風速(m/s),最大風速時風向,気温(℃),湿度(%),10分間移動積算雨量(mm),1時間移動積算雨量(mm),日雨量(mm),累計雨量(mm),日射(日積算)(MJ/m2),日照(日積算)(min),現地気圧(hPa),海面気圧(hPa)
1,2023-12-25T00:00:00,0.5,北西,1.1,西,0.8,84.4,0,0,0,0,10.69,461,1013.1,1027.8
2,2023-12-25T00:01:00,0.5,北北西,1.2,北,0.7,84.8,0,0,0,0,0,0,1013.1,1027.8
3,2023-12-25T00:02:00,0.5,北北西,1.9,北北東,0.7,85.1,0,0,0,0,0,0,1013.1,1027.8
4,2023-12-25T00:03:00,0.6,北,1.9,北北東,0.6,85.6,0,0,0,0,0,0,1013.1,1027.8
5,2023-12-25T00:04:00,0.7,北,1.9,北北東,0.7,86,0,0,0,0,0,0,1013.1,1027.8
6,2023-12-25T00:05:00,0.7,北,1.9,北北東,0.6,86,0,0,0,0,0,0,1013.1,1027.8
7,2023-12-25T00:06:00,0.7,北,1.9,北北東,0.6,85.9,0,0,0,0,0,0,1013.1,1027.8
8,2023-12-25T00:07:00,0.7,北,1.9,北北東,0.6,85.7,0,0,0,0,0,0,1013,1027.7
9,2023-12-25T00:08:00,0.7,北,2,北北東,0.5,85.6,0,0,0,0,0,0,1013,1027.7
10,2023-12-25T00:09:00,0.8,北,2,北北東,0.6,85.8,0,0,0,0,0,0,1013.1,1027.8
11,2023-12-25T00:10:00,0.8,北北東,2,北北東,0.5,85.7,0,0,0,0,0,0,1013.1,1027.8
12,2023-12-25T00:11:00,0.8,北北東,2,北北東,0.6,85.8,0,0,0,0,0,0,1013.1,1027.8
13,2023-12-25T00:12:00,0.7,北,2,北北東,0.6,85.4,0,0,0,0,0,0,1013,1027.7
14,2023-12-25T00:13:00,0.7,北,2,北北東,0.9,85.4,0,0,0,0,0,0,1013.1,1027.8
15,2023-12-25T00:14:00,0.7,北,2,北北東,1,84.9,0,0,0,0,0,0,1013.1,1027.8
16,2023-12-25T00:15:00,0.6,北,2,北北東,0.7,84.3,0,0,0,0,0,0,1013.1,1027.8
17,2023-12-25T00:16:00,0.6,北,2,北北東,0.7,84.5,0,0,0,0,0,0,1013.1,1027.8
18,2023-12-25T00:17:00,0.6,北,2,北北東,0.6,84.7,0,0,0,0,0,0,1013.1,1027.8
19,2023-12-25T00:18:00,0.5,北北西,1.8,北,0.5,84.8,0,0,0,0,0,0,1013.1,1027.8
20,2023-12-25T00:19:00,0.5,北北西,1.6,北,0.5,85.4,0,0,0,0,0,0,1013,1027.7
21,2023-12-25T00:20:00,0.4,北北西,1.2,北北西,0.7,85.7,0,0,0,0,0,0,1013,1027.7
22,2023-12-25T00:21:00,0.4,北北西,1.2,北北西,0.6,85.3,0,0,0,0,0,0,1013,1027.7
23,2023-12-25T00:22:00,0.4,北北西,1.2,北北西,0.6,85.4,0,0,0,0,0,0,1013,1027.7
24,2023-12-25T00:23:00,0.4,北北西,1.2,北北西,0.5,85.6,0,0,0,0,0,0,1013,1027.7
25,2023-12-25T00:24:00,0.4,北北西,1.1,北北東,0.5,85.7,0,0,0,0,0,0,1012.9,1027.6
26,2023-12-25T00:25:00,0.4,北北西,1.1,北北東,0.5,85.7,0,0,0,0,0,0,1012.9,1027.6
27,2023-12-25T00:26:00,0.5,北北西,1.1,北北東,0.5,85.7,0,0,0,0,0,0,1012.9,1027.6
28,2023-12-25T00:27:00,0.5,北北西,1.1,北北東,0.8,86.1,0,0,0,0,0,0,1012.9,1027.6
29,2023-12-25T00:28:00,0.5,北北西,1.1,北北東,0.8,85.5,0,0,0,0,0,0,1012.9,1027.6
30,2023-12-25T00:29:00,0.5,北北西,1.1,北北東,0.7,84.8,0,0,0,0,0,0,1013,1027.7
31,2023-12-25T00:30:00,0.4,北北西,1.1,北北東,0.7,85.1,0,0,0,0,0,0,1012.9,1027.6
32,2023-12-25T00:31:00,0.4,北北西,1,北北西,0.6,85,0,0,0,0,0,0,1012.9,1027.6
33,2023-12-25T00:32:00,0.4,北北西,1,北北西,0.6,85.2,0,0,0,0,0,0,1012.9,1027.6
34,2023-12-25T00:33:00,0.4,北北西,1,北北西,0.5,85.5,0,0,0,0,0,0,1012.9,1027.6
35,2023-12-25T00:34:00,0.4,北北西,1,北北西,0.5,85.6,0,0,0,0,0,0,1013,1027.7
36,2023-12-25T00:35:00,0.4,北北西,1,北北西,0.5,85.8,0,0,0,0,0,0,1012.9,1027.6
37,2023-12-25T00:36:00,0.4,北北西,1,北北西,0.6,85.9,0,0,0,0,0,0,1012.9,1027.6
38,2023-12-25T00:37:00,0.3,北北西,1,北北西,0.6,85.8,0,0,0,0,0,0,1012.9,1027.6
39,2023-12-25T00:38:00,0.3,北北西,0.9,北西,0.6,85.6,0,0,0,0,0,0,1012.9,1027.6
40,2023-12-25T00:39:00,0.4,北北西,0.9,北西,0.6,85.6,0,0,0,0,0,0,1012.9,1027.6
41,2023-12-25T00:40:00,0.4,北北西,0.9,北西,0.5,85.7,0,0,0,0,0,0,1012.9,1027.6
42,2023-12-25T00:41:00,0.4,北北西,0.9,北西,0.8,86,0,0,0,0,0,0,1012.9,1027.6
43,2023-12-25T00:42:00,0.5,北西,0.9,北西,0.7,85.6,0,0,0,0,0,0,1012.8,1027.5
44,2023-12-25T00:43:00,0.6,北西,1,北西,0.6,85,0,0,0,0,0,0,1012.9,1027.6
45,2023-12-25T00:44:00,0.6,北西,1,北西,0.9,85.5,0,0,0,0,0,0,1012.9,1027.6
46,2023-12-25T00:45:00,0.6,北西,1,北西,0.7,84.8,0,0,0,0,0,0,1012.9,1027.6
47,2023-12-25T00:46:00,0.5,北北西,1,北西,0.7,84.7,0,0,0,0,0,0,1012.8,1027.5
48,2023-12-25T00:47:00,0.5,北北西,1,北西,0.7,85,0,0,0,0,0,0,1012.8,1027.5
49,2023-12-25T00:48:00,0.5,北北西,1,北西,0.7,84.7,0,0,0,0,0,0,1012.7,1027.4
50,2023-12-25T00:49:00,0.5,北北西,1,北西,0.5,84.4,0,0,0,0,0,0,1012.8,1027.5
51,2023-12-25T00:50:00,0.5,北,1,北西,0.5,84.7,0,0,0,0,0,0,1012.7,1027.4
52,2023-12-25T00:51:00,0.5,北,1.3,北北東,0.4,85.3,0,0,0,0,0,0,1012.7,1027.4
53,2023-12-25T00:52:00,0.5,北北東,1.3,北北東,0.7,85.7,0,0,0,0,0,0,1012.7,1027.4
54,2023-12-25T00:53:00,0.5,北北東,1.3,北北東,0.7,85.6,0,0,0,0,0,0,1012.6,1027.3
55,2023-12-25T00:54:00,0.5,北北東,1.3,北北東,0.6,85.2,0,0,0,0,0,0,1012.6,1027.3
56,2023-12-25T00:55:00,0.5,北北東,1.3,北北東,0.6,85.5,0,0,0,0,0,0,1012.6,1027.3
57,2023-12-25T00:56:00,0.5,北北東,1.3,北北東,0.8,86,0,0,0,0,0,0,1012.6,1027.3
58,2023-12-25T00:57:00,0.5,北北東,1.3,北北東,0.6,85.5,0,0,0,0,0,0,1012.6,1027.3
59,2023-12-25T00:58:00,0.6,北北東,1.3,北北東,0.6,85.8,0,0,0,0,0,0,1012.7,1027.4
60,2023-12-25T00:59:00,0.7,北北東,2,北北東,0.7,86.1,0,0,0,0,0,0,1012.6,1027.3
61,2023-12-25T01:00:00,0.7,北北東,2,北北東,0.7,85.9,0,0,0,0,0,0,1012.6,1027.3
62,2023-12-25T01:01:00,0.7,北北東,2,北北東,1.1,85.6,0,0,0,0,0,0,1012.7,1027.4
63,2023-12-25T01:02:00,0.7,北北東,2,北北東,0.7,84.6,0,0,0,0,0,0,1012.6,1027.3
64,2023-12-25T01:03:00,0.8,北北東,2,北北東,0.6,84.7,0,0,0,0,0,0,1012.6,1027.3
65,2023-12-25T01:04:00,0.9,北北東,2,北北東,0.7,85.1,0,0,0,0,0,0,1012.6,1027.3
66,2023-12-25T01:05:00,0.9,北北東,2,北北東,0.6,84.9,0,0,0,0,0,0,1012.6,1027.3
67,2023-12-25T01:06:00,0.9,北北東,2,北北東,0.6,84.5,0,0,0,0,0,0,1012.6,1027.3
68,2023-12-25T01:07:00,1,北北東,2,北北東,0.5,84.8,0,0,0,0,0,0,1012.5,1027.2
69,2023-12-25T01:08:00,1.1,北北東,2,北北東,0.7,85.1,0,0,0,0,0,0,1012.6,1027.3
70,2023-12-25T01:09:00,1.1,北,2,北,0.7,85.2,0,0,0,0,0,0,1012.6,1027.3
71,2023-12-25T01:10:00,1,北,2,北,0.6,85,0,0,0,0,0,0,1012.6,1027.3
72,2023-12-25T01:11:00,1,北,2,北,0.5,85.1,0,0,0,0,0,0,1012.5,1027.2
73,2023-12-25T01:12:00,1,北,2,北,0.7,85.3,0,0,0,0,0,0,1012.6,1027.3
74,2023-12-25T01:13:00,0.8,北,2,北,0.6,85.1,0,0,0,0,0,0,1012.6,1027.3
75,2023-12-25T01:14:00,0.7,北,2,北,0.5,85,0,0,0,0,0,0,1012.7,1027.4
76,2023-12-25T01:15:00,0.7,北北西,2,北,0.4,85.3,0,0,0,0,0,0,1012.6,1027.3
77,2023-12-25T01:16:00,0.7,北北西,2,北,0.4,85.8,0,0,0,0,0,0,1012.6,1027.3
78,2023-12-25T01:17:00,0.6,北北西,2,北,0.4,86.2,0,0,0,0,0,0,1012.5,1027.2
79,2023-12-25T01:18:00,0.5,北,2,北,0.6,86.4,0,0,0,0,0,0,1012.5,1027.2
80,2023-12-25T01:19:00,0.5,北,1.1,北北東,0.6,86,0,0,0,0,0,0,1012.6,1027.3
81,2023-12-25T01:20:00,0.5,北,1.1,北北東,0.5,85.6,0,0,0,0,0,0,1012.5,1027.2
82,2023-12-25T01:21:00,0.5,北,1.1,北北東,0.4,85.6,0,0,0,0,0,0,1012.5,1027.2
83,2023-12-25T01:22:00,0.4,北,1.1,北北東,0.5,86,0,0,0,0,0,0,1012.4,1027.1
84,2023-12-25T01:23:00,0.4,北,1.1,北北東,0.5,86.1,0,0,0,0,0,0,1012.5,1027.2
85,2023-12-25T01:24:00,0.5,北,1.1,北北東,0.6,85.9,0,0,0,0,0,0,1012.5,1027.2
86,2023-12-25T01:25:00,0.5,北,1.1,北北東,0.6,85.7,0,0,0,0,0,0,1012.5,1027.2
87,2023-12-25T01:26:00,0.5,北,1.1,北,0.4,85.3,0,0,0,0,0,0,1012.6,1027.3
88,2023-12-25T01:27:00,0.5,北,1.1,北,0.3,85.6,0,0,0,0,0,0,1012.5,1027.2
89,2023-12-25T01:28:00,0.4,北,1.1,北,0.3,86,0,0,0,0,0,0,1012.6,1027.3
90,2023-12-25T01:29:00,0.4,北北西,1.1,北,0.3,86.1,0,0,0,0,0,0,1012.5,1027.2
91,2023-12-25T01:30:00,0.4,北北西,1.1,北,0.2,86,0,0,0,0,0,0,1012.6,1027.4
92,2023-12-25T01:31:00,0.5,北北西,1.1,北,0.2,86.4,0,0,0,0,0,0,1012.6,1027.4
93,2023-12-25T01:32:00,0.5,北北西,1.1,北,0.5,87.1,0,0,0,0,0,0,1012.6,1027.3
94,2023-12-25T01:33:00,0.5,北西,1.1,北,0.4,86.6,0,0,0,0,0,0,1012.6,1027.3
95,2023-12-25T01:34:00,0.4,北西,1.1,北,0.3,86.3,0,0,0,0,0,0,1012.5,1027.2
96,2023-12-25T01:35:00,0.5,北西,1.1,北,0.2,86.2,0,0,0,0,0,0,1012.5,1027.3
97,2023-12-25T01:36:00,0.4,北西,1,西南西,0.1,86.4,0,0,0,0,0,0,1012.6,1027.4
98,2023-12-25T01:37:00,0.4,北西,1,西南西,0,86.6,0,0,0,0,0,0,1012.6,1027.4
99,2023-12-25T01:38:00,0.4,北西,1,西南西,0,87,0,0,0,0,0,0,1012.6,1027.4
100,2023-12-25T01:39:00,0.4,北西,0.9,西北西,0.1,87.2,0,0,0,0,0,0,1012.5,1027.3
101,2023-12-25T01:40:00,0.4,北北西,1,東北東,0.2,87.5,0,0,0,0,0,0,1012.5,1027.3
102,2023-12-25T01:41:00,0.4,北北西,1,東北東,0.4,87.5,0,0,0,0,0,0,1012.5,1027.2
103,2023-12-25T01:42:00,0.4,北北西,1,東北東,0.2,86.9,0,0,0,0,0,0,1012.6,1027.4
104,2023-12-25T01:43:00,0.4,北北西,1,東北東,0.1,86.7,0,0,0,0,0,0,1012.5,1027.3
105,2023-12-25T01:44:00,0.4,北,1.1,北,0.2,87.2,0,0,0,0,0,0,1012.5,1027.3
106,2023-12-25T01:45:00,0.4,北,1.1,北,0.2,87.1,0,0,0,0,0,0,1012.5,1027.3
107,2023-12-25T01:46:00,0.4,北,1.1,北,0.1,87.1,0,0,0,0,0,0,1012.5,1027.3
108,2023-12-25T01:47:00,0.4,北,1.1,北,0,87.3,0,0,0,0,0,0,1012.5,1027.3
109,2023-12-25T01:48:00,0.4,北北東,1.1,北,0,87.2,0,0,0,0,0,0,1012.5,1027.3
110,2023-12-25T01:49:00,0.5,北北東,1.1,北,0,87.3,0,0,0,0,0,0,1012.4,1027.2
111,2023-12-25T01:50:00,0.5,北,1.4,北北東,0,87.5,0,0,0,0,0,0,1012.5,1027.3
112,2023-12-25T01:51:00,0.6,北,1.6,北,0,87.8,0,0,0,0,0,0,1012.4,1027.2
113,2023-12-25T01:52:00,0.6,北,1.6,北,0,87.7,0,0,0,0,0,0,1012.5,1027.3
114,2023-12-25T01:53:00,0.6,北,1.6,北,0,87.7,0,0,0,0,0,0,1012.4,1027.2
115,2023-12-25T01:54:00,0.7,北,1.8,北,0,87.6,0,0,0,0,0,0,1012.5,1027.3
116,2023-12-25T01:55:00,0.7,北,1.8,北,0.1,87.7,0,0,0,0,0,0,1012.5,1027.3
117,2023-12-25T01:56:00,0.8,北,1.8,北,0.2,87.8,0,0,0,0,0,0,1012.5,1027.3
118,2023-12-25T01:57:00,0.9,北,1.8,北,0,87.5,0,0,0,0,0,0,1012.5,1027.3
119,2023-12-25T01:58:00,0.9,北,1.8,北,0,87.4,0,0,0,0,0,0,1012.5,1027.3
120,2023-12-25T01:59:00,0.9,北,1.8,北,0,87.4,0,0,0,0,0,0,1012.5,1027.3
121,2023-12-25T02:00:00,0.9,北,1.8,北,0,87.7,0,0,0,0,0,0,1012.6,1027.4
122,2023-12-25T02:01:00,0.8,北,1.8,北,0,87.7,0,0,0,0,0,0,1012.5,1027.3
123,2023-12-25T02:02:00,0.8,北,1.8,北,0,87.8,0,0,0,0,0,0,1012.6,1027.4
124,2023-12-25T02:03:00,0.8,北,1.8,北,-0.1,87.6,0,0,0,0,0,0,1012.5,1027.3
125,2023-12-25T02:04:00,0.7,北,1.8,北北東,-0.2,87.5,0,0,0,0,0,0,1012.6,1027.4
126,2023-12-25T02:05:00,0.6,北,1.8,北北東,-0.3,87.7,0,0,0,0,0,0,1012.5,1027.3
127,2023-12-25T02:06:00,0.5,北北西,1.6,北,-0.2,88.3,0,0,0,0,0,0,1012.5,1027.3
128,2023-12-25T02:07:00,0.5,北北西,1.6,北,-0.1,89,0,0,0,0,0,0,1012.5,1027.3
129,2023-12-25T02:08:00,0.5,北北西,1.6,北,-0.2,88.3,0,0,0,0,0,0,1012.5,1027.3
130,2023-12-25T02:09:00,0.5,北北西,1.2,北,-0.1,88.5,0,0,0,0,0,0,1012.4,1027.2
131,2023-12-25T02:10:00,0.5,北北西,1.1,北,-0.1,88.3,0,0,0,0,0,0,1012.5,1027.3
132,2023-12-25T02:11:00,0.5,北,1.1,北,-0.1,88.2,0,0,0,0,0,0,1012.5,1027.3
133,2023-12-25T02:12:00,0.5,北,1.1,北,-0.2,88,0,0,0,0,0,0,1012.5,1027.3
134,2023-12-25T02:13:00,0.5,北,1.1,北,-0.1,88.3,0,0,0,0,0,0,1012.5,1027.3
135,2023-12-25T02:14:00,0.6,北,1.5,北,-0.1,88.2,0,0,0,0,0,0,1012.4,1027.2
136,2023-12-25T02:15:00,0.7,北,1.5,北,-0.1,88.2,0,0,0,0,0,0,1012.4,1027.2
137,2023-12-25T02:16:00,0.7,北,1.5,北,-0.2,88.1,0,0,0,0,0,0,1012.4,1027.2
138,2023-12-25T02:17:00,0.8,北,1.5,北,-0.2,88,0,0,0,0,0,0,1012.4,1027.2
139,2023-12-25T02:18:00,0.8,北北東,2.1,北,-0.2,88.3,0,0,0,0,0,0,1012.4,1027.2
140,2023-12-25T02:19:00,0.9,北北東,2.1,北,-0.3,88.4,0,0,0,0,0,0,1012.4,1027.2
141,2023-12-25T02:20:00,0.9,北北東,2.1,北,-0.2,88.6,0,0,0,0,0,0,1012.3,1027.1
142,2023-12-25T02:21:00,0.9,北北東,2.1,北,-0.1,88.6,0,0,0,0,0,0,1012.3,1027.1
143,2023-12-25T02:22:00,0.9,北北東,2.1,北,-0.1,88.5,0,0,0,0,0,0,1012.3,1027.1
144,2023-12-25T02:23:00,0.9,北,2.1,北,-0.2,88.2,0,0,0,0,0,0,1012.3,1027.1
145,2023-12-25T02:24:00,0.8,北,2.1,北,-0.2,88,0,0,0,0,0,0,1012.3,1027.1
146,2023-12-25T02:25:00,0.9,北,2.1,北,-0.2,87.9,0,0,0,0,0,0,1012.2,1027
147,2023-12-25T02:26:00,0.9,北,2.1,北,-0.2,87.9,0,0,0,0,0,0,1012.3,1027.1
148,2023-12-25T02:27:00,0.9,北北西,2.1,北,-0.2,87.8,0,0,0,0,0,0,1012.3,1027.1
149,2023-12-25T02:28:00,0.8,北北西,1.8,北,-0.2,88.1,0,0,0,0,0,0,1012.3,1027.1
150,2023-12-25T02:29:00,0.8,北北西,1.8,北,-0.2,87.9,0,0,0,0,0,0,1012.3,1027.1
151,2023-12-25T02:30:00,0.8,北西,1.6,北,-0.4,87.6,0,0,0,0,0,0,1012.3,1027.1
152,2023-12-25T02:31:00,0.8,北西,1.4,北北西,-0.4,88.1,0,0,0,0,0,0,1012.3,1027.1
153,2023-12-25T02:32:00,0.8,北西,1.4,北北西,-0.4,88.6,0,0,0,0,0,0,1012.3,1027.1
154,2023-12-25T02:33:00,0.8,北西,1.4,北北西,-0.4,88.8,0,0,0,0,0,0,1012.3,1027.1
155,2023-12-25T02:34:00,0.7,西北西,1.4,北北西,-0.4,89,0,0,0,0,0,0,1012.3,1027.1
156,2023-12-25T02:35:00,0.6,西北西,1.4,北北西,-0.4,89,0,0,0,0,0,0,1012.4,1027.2
157,2023-12-25T02:36:00,0.6,西北西,1.4,北北西,-0.4,89.1,0,0,0,0,0,0,1012.3,1027.1
158,2023-12-25T02:37:00,0.6,西北西,1.4,北北西,-0.5,89,0,0,0,0,0,0,1012.3,1027.1
159,2023-12-25T02:38:00,0.6,西北西,1.3,西北西,-0.2,89.6,0,0,0,0,0,0,1012.3,1027.1
160,2023-12-25T02:39:00,0.6,西北西,1.6,西,-0.1,89.2,0,0,0,0,0,0,1012.3,1027.1
161,2023-12-25T02:40:00,0.7,西北西,1.6,西,0,88.9,0,0,0,0,0,0,1012.4,1027.2
162,2023-12-25T02:41:00,0.7,西北西,1.8,西,0,88.2,0,0,0,0,0,0,1012.4,1027.2
163,2023-12-25T02:42:00,0.7,西北西,1.8,西,-0.2,87.8,0,0,0,0,0,0,1012.4,1027.2
164,2023-12-25T02:43:00,0.8,西北西,1.8,西,-0.3,87.9,0,0,0,0,0,0,1012.3,1027.1
165,2023-12-25T02:44:00,0.8,西北西,1.8,西,-0.2,88.4,0,0,0,0,0,0,1012.4,1027.2
166,2023-12-25T02:45:00,0.8,西北西,1.8,西,-0.2,88.4,0,0,0,0,0,0,1012.4,1027.2
167,2023-12-25T02:46:00,0.8,西北西,1.8,西,-0.2,88.3,0,0,0,0,0,0,1012.4,1027.2
168,2023-12-25T02:47:00,0.8,西,1.8,西,-0.3,88,0,0,0,0,0,0,1012.4,1027.2
169,2023-12-25T02:48:00,0.7,西,1.8,西,-0.5,87.9,0,0,0,0,0,0,1012.3,1027.1
170,2023-12-25T02:49:00,0.7,西,1.8,西,-0.3,88.4,0,0,0,0,0,0,1012.2,1027
171,2023-12-25T02:50:00,0.6,西北西,1.8,西,-0.4,88.5,0,0,0,0,0,0,1012.3,1027.1
172,2023-12-25T02:51:00,0.4,西北西,1.1,西,-0.4,88.5,0,0,0,0,0,0,1012.3,1027.1
173,2023-12-25T02:52:00,0.4,西北西,1.2,北東,-0.3,89,0,0,0,0,0,0,1012.3,1027.1
174,2023-12-25T02:53:00,0.5,北西,1.2,北東,-0.1,89.2,0,0,0,0,0,0,1012.3,1027.1
175,2023-12-25T02:54:00,0.5,北北西,1.2,北東,-0.1,89.1,0,0,0,0,0,0,1012.3,1027.1
176,2023-12-25T02:55:00,0.5,北,1.2,北東,-0.2,88.7,0,0,0,0,0,0,1012.2,1027
177,2023-12-25T02:56:00,0.6,北北東,1.2,北東,0,88.7,0,0,0,0,0,0,1012.2,1027
178,2023-12-25T02:57:00,0.5,北北東,1.2,北東,-0.1,88.2,0,0,0,0,0,0,1012.2,1027
179,2023-12-25T02:58:00,0.5,北東,1.2,北東,-0.3,87.8,0,0,0,0,0,0,1012.2,1027
180,2023-12-25T02:59:00,0.5,北東,1.2,北東,-0.4,88.1,0,0,0,0,0,0,1012.2,1027
181,2023-12-25T03:00:00,0.5,東北東,1.2,北東,-0.5,88.6,0,0,0,0,0,0,1012.2,1027
182,2023-12-25T03:01:00,0.6,東北東,1.2,北東,-0.6,88.9,0,0,0,0,0,0,1012.1,1026.9
183,2023-12-25T03:02:00,0.6,東北東,1.3,北東,-0.6,89.3,0,0,0,0,0,0,1012.1,1026.9
184,2023-12-25T03:03:00,0.6,東北東,1.3,北東,-0.7,89.8,0,0,0,0,0,0,1012,1026.8
185,2023-12-25T03:04:00,0.6,東北東,1.3,北東,-0.7,90,0,0,0,0,0,0,1012.2,1027
186,2023-12-25T03:05:00,0.6,東北東,1.3,北東,-0.7,90.3,0,0,0,0,0,0,1012.1,1026.9
187,2023-12-25T03:06:00,0.6,東北東,1.3,北東,-0.4,90.8,0,0,0,0,0,0,1012.1,1026.9
188,2023-12-25T03:07:00,0.6,東北東,1.3,北東,-0.2,90.7,0,0,0,0,0,0,1012.1,1026.9
189,2023-12-25T03:08:00,0.6,東北東,1.3,北東,-0.3,89.9,0,0,0,0,0,0,1012.1,1026.9
190,2023-12-25T03:09:00,0.6,北東,1.3,北東,-0.5,89.1,0,0,0,0,0,0,1012.1,1026.9
191,2023-12-25T03:10:00,0.6,北東,1.3,北東,-0.5,89,0,0,0,0,0,0,1012.2,1027
192,2023-12-25T03:11:00,0.6,北北東,1.3,北東,-0.6,89.2,0,0,0,0,0,0,1012.2,1027
193,2023-12-25T03:12:00,0.6,北,1.3,北西,-0.4,89.4,0,0,0,0,0,0,1012.1,1026.9
194,2023-12-25T03:13:00,0.6,北,1.3,北西,-0.5,88.8,0,0,0,0,0,0,1012.1,1026.9
195,2023-12-25T03:14:00,0.7,北北西,1.3,北西,-0.4,88.9,0,0,0,0,0,0,1012.2,1027
196,2023-12-25T03:15:00,0.6,北北西,1.3,北西,-0.5,88.4,0,0,0,0,0,0,1012.1,1026.9
197,2023-12-25T03:16:00,0.6,北西,1.3,北西,-0.6,88.5,0,0,0,0,0,0,1012.1,1026.9
198,2023-12-25T03:17:00,0.6,北西,1.3,北西,-0.7,88.3,0,0,0,0,0,0,1012.2,1027
199,2023-12-25T03:18:00,0.6,北西,1.3,北西,-0.7,88.7,0,0,0,0,0,0,1012.1,1026.9
200,2023-12-25T03:19:00,0.6,北北西,1.3,北西,-0.7,89,0,0,0,0,0,0,1012.1,1026.9
201,2023-12-25T03:20:00,0.6,北北西,1.3,北西,-0.7,89.3,0,0,0,0,0,0,1012.1,1026.9
202,2023-12-25T03:21:00,0.6,北北西,1.3,北西,-0.6,89.6,0,0,0,0,0,0,1012.1,1026.9
203,2023-12-25T03:22:00,0.6,北北西,1.3,北西,-0.6,89.7,0,0,0,0,0,0,1012.1,1026.9
204,2023-12-25T03:23:00,0.6,北北西,1.3,北西,-0.6,89.5,0,0,0,0,0,0,1012.2,1027
205,2023-12-25T03:24:00,0.5,北北西,1.3,北,-0.7,89,0,0,0,0,0,0,1012.1,1026.9
206,2023-12-25T03:25:00,0.6,北北西,2.1,北,-0.7,89.1,0,0,0,0,0,0,1012.1,1026.9
207,2023-12-25T03:26:00,0.6,北北西,2.1,北,-0.8,88.9,0,0,0,0,0,0,1012.1,1026.9
208,2023-12-25T03:27:00,0.7,北,2.4,北北東,-0.7,89.1,0,0,0,0,0,0,1012.1,1026.9
209,2023-12-25T03:28:00,0.8,北,2.4,北北東,-0.7,89.3,0,0,0,0,0,0,1012.1,1026.9
210,2023-12-25T03:29:00,0.8,北,2.4,北北東,-0.8,89.1,0,0,0,0,0,0,1012.1,1026.9
211,2023-12-25T03:30:00,0.9,北,2.4,北北東,-0.7,89.4,0,0,0,0,0,0,1012.1,1026.9
212,2023-12-25T03:31:00,1,北,2.4,北北東,-0.8,89.5,0,0,0,0,0,0,1012.1,1026.9
213,2023-12-25T03:32:00,1,北,2.4,北北東,-0.7,89.6,0,0,0,0,0,0,1012.2,1027
214,2023-12-25T03:33:00,1,北,2.4,北北東,-0.8,89.6,0,0,0,0,0,0,1012.2,1027
215,2023-12-25T03:34:00,1.1,北,2.4,北北東,-0.8,89.5,0,0,0,0,0,0,1012.2,1027
216,2023-12-25T03:35:00,1.2,北北東,2.7,北北東,-0.9,89.4,0,0,0,0,0,0,1012.1,1026.9
217,2023-12-25T03:36:00,1.3,北北東,2.7,北北東,-1,89.6,0,0,0,0,0,0,1012.1,1026.9
218,2023-12-25T03:37:00,1.4,北北東,2.7,北北東,-1,90,0,0,0,0,0,0,1012.1,1026.9
219,2023-12-25T03:38:00,1.5,北北東,2.7,北北東,-1,90.1,0,0,0,0,0,0,1012.1,1026.9
220,2023-12-25T03:39:00,1.5,北北東,2.7,北北東,-1,90.1,0,0,0,0,0,0,1012.1,1026.9
221,2023-12-25T03:40:00,1.6,北北東,2.7,北北東,-0.8,90.5,0,0,0,0,0,0,1012.1,1026.9
222,2023-12-25T03:41:00,1.6,北北東,2.7,北北東,-1,90.2,0,0,0,0,0,0,1012.1,1026.9
223,2023-12-25T03:42:00,1.6,北北東,2.7,北北東,-0.9,90.3,0,0,0,0,0,0,1012,1026.8
224,2023-12-25T03:43:00,1.7,北北東,2.7,北北東,-1,90.4,0,0,0,0,0,0,1012,1026.8
225,2023-12-25T03:44:00,1.7,北北東,2.7,北北東,-1,90.4,0,0,0,0,0,0,1012,1026.8
226,2023-12-25T03:45:00,1.7,北北東,2.8,北,-1,90.6,0,0,0,0,0,0,1012,1026.8
227,2023-12-25T03:46:00,1.7,北北東,2.8,北,-1,90.5,0,0,0,0,0,0,1011.9,1026.7
228,2023-12-25T03:47:00,1.7,北北東,2.8,北,-0.9,90.7,0,0,0,0,0,0,1011.9,1026.7
229,2023-12-25T03:48:00,1.6,北北東,2.8,北,-0.9,90.5,0,0,0,0,0,0,1011.9,1026.7
230,2023-12-25T03:49:00,1.5,北北東,2.8,北,-0.9,90.2,0,0,0,0,0,0,1012,1026.8
231,2023-12-25T03:50:00,1.4,北,2.8,北,-0.9,90.1,0,0,0,0,0,0,1011.9,1026.7
232,2023-12-25T03:51:00,1.3,北,2.8,北,-0.9,90.1,0,0,0,0,0,0,1012,1026.8
233,2023-12-25T03:52:00,1.3,北,2.8,北,-1,89.5,0,0,0,0,0,0,1011.9,1026.7
234,2023-12-25T03:53:00,1.2,北,2.8,北,-0.9,89.7,0,0,0,0,0,0,1011.9,1026.7
235,2023-12-25T03:54:00,1.2,北,2.8,北,-0.9,89.5,0,0,0,0,0,0,1011.9,1026.7
236,2023-12-25T03:55:00,1.1,北北西,2.6,北北東,-0.9,89.5,0,0,0,0,0,0,1011.9,1026.7
237,2023-12-25T03:56:00,1,北北西,2.2,北,-1,89.4,0,0,0,0,0,0,1011.9,1026.7
238,2023-12-25T03:57:00,1,北北西,1.8,北,-1.1,89.2,0,0,0,0,0,0,1012,1026.8
239,2023-12-25T03:58:00,0.9,北北西,1.7,北西,-1.1,89.3,0,0,0,0,0,0,1011.9,1026.7
240,2023-12-25T03:59:00,1,北北西,2.1,北,-0.8,90.2,0,0,0,0,0,0,1011.9,1026.7
241,2023-12-25T04:00:00,1,北北西,2.1,北,-0.9,89.7,0,0,0,0,0,0,1011.8,1026.6
242,2023-12-25T04:01:00,1,北北西,2.1,北,-0.9,89.6,0,0,0,0,0,0,1011.8,1026.6
243,2023-12-25T04:02:00,1,北,2.1,北,-0.9,89.9,0,0,0,0,0,0,1011.8,1026.6
244,2023-12-25T04:03:00,1,北,2.1,北,-0.9,89.8,0,0,0,0,0,0,1011.8,1026.6
245,2023-12-25T04:04:00,0.9,北,2.1,北,-0.9,89.7,0,0,0,0,0,0,1011.9,1026.7
246,2023-12-25T04:05:00,0.9,北,2.1,北,-1,89.6,0,0,0,0,0,0,1011.9,1026.7
247,2023-12-25T04:06:00,0.8,北,2.1,北,-1,89.7,0,0,0,0,0,0,1011.9,1026.7
248,2023-12-25T04:07:00,0.7,北,2.1,北,-1,90,0,0,0,0,0,0,1011.9,1026.7
249,2023-12-25T04:08:00,0.7,北,2.1,北,-1,90,0,0,0,0,0,0,1011.9,1026.7
250,2023-12-25T04:09:00,0.7,北,2.1,北北東,-1,90,0,0,0,0,0,0,1011.9,1026.7
251,2023-12-25T04:10:00,0.6,北,1.6,北北東,-0.9,90.1,0,0,0,0,0,0,1011.9,1026.7
252,2023-12-25T04:11:00,0.6,北北西,1.3,北,-0.9,90,0,0,0,0,0,0,1011.9,1026.7
253,2023-12-25T04:12:00,0.6,北北西,1.3,北,-0.9,90.1,0,0,0,0,0,0,1011.8,1026.6
254,2023-12-25T04:13:00,0.6,北北西,1.2,北西,-0.8,89.8,0,0,0,0,0,0,1011.9,1026.7
255,2023-12-25T04:14:00,0.6,北北西,1.2,北西,-0.9,89.7,0,0,0,0,0,0,1011.9,1026.7
256,2023-12-25T04:15:00,0.6,北北西,1.2,北西,-1,89.3,0,0,0,0,0,0,1011.9,1026.7
257,2023-12-25T04:16:00,0.6,北北西,1.2,北西,-1.1,89.5,0,0,0,0,0,0,1011.9,1026.7
258,2023-12-25T04:17:00,0.6,北北西,1.2,北西,-1.1,89.6,0,0,0,0,0,0,1011.9,1026.7
259,2023-12-25T04:18:00,0.5,北北西,1.2,北西,-1.1,89.8,0,0,0,0,0,0,1011.9,1026.7
260,2023-12-25T04:19:00,0.5,北北西,1.2,北西,-1.1,90.1,0,0,0,0,0,0,1011.9,1026.7
261,2023-12-25T04:20:00,0.5,北北西,1.2,北西,-1.1,90.4,0,0,0,0,0,0,1012,1026.8
262,2023-12-25T04:21:00,0.4,北北西,0.9,北,-1.1,90.3,0,0,0,0,0,0,1011.9,1026.7
263,2023-12-25T04:22:00,0.4,北北西,0.9,北,-1,90.7,0,0,0,0,0,0,1011.9,1026.7
264,2023-12-25T04:23:00,0.3,北北西,0.8,西北西,-0.9,90.5,0,0,0,0,0,0,1011.9,1026.7
265,2023-12-25T04:24:00,0.3,北北西,0.8,西北西,-1,90.2,0,0,0,0,0,0,1011.9,1026.7
266,2023-12-25T04:25:00,0.2,静穏,0.8,西北西,-0.9,90.2,0,0,0,0,0,0,1011.9,1026.7
267,2023-12-25T04:26:00,0.2,静穏,0.8,西北西,-1,89.9,0,0,0,0,0,0,1011.9,1026.7
268,2023-12-25T04:27:00,0.2,静穏,0.8,西北西,-1,90,0,0,0,0,0,0,1011.9,1026.7
269,2023-12-25T04:28:00,0.3,西北西,0.8,西北西,-1.1,89.9,0,0,0,0,0,0,1011.9,1026.7
270,2023-12-25T04:29:00,0.2,静穏,0.8,西北西,-0.7,90.8,0,0,0,0,0,0,1011.9,1026.7
271,2023-12-25T04:30:00,0.2,静穏,0.8,西北西,-1.1,89.7,0,0,0,0,0,0,1011.9,1026.7
272,2023-12-25T04:31:00,0.2,静穏,0.8,西北西,-1.2,89.4,0,0,0,0,0,0,1011.9,1026.7
273,2023-12-25T04:32:00,0.2,静穏,0.8,西北西,-1.1,90.2,0,0,0,0,0,0,1012,1026.8
274,2023-12-25T04:33:00,0.1,静穏,0.8,西南西,-0.9,90.6,0,0,0,0,0,0,1012,1026.8
275,2023-12-25T04:34:00,0.1,静穏,0.8,西南西,-0.9,90.6,0,0,0,0,0,0,1012,1026.8
276,2023-12-25T04:35:00,0.1,静穏,0.8,西南西,-1.1,90.2,0,0,0,0,0,0,1012,1026.8
277,2023-12-25T04:36:00,0.1,静穏,0.8,西南西,-1.1,90.3,0,0,0,0,0,0,1012,1026.8
278,2023-12-25T04:37:00,0.1,静穏,0.8,西南西,-1.1,90.6,0,0,0,0,0,0,1012,1026.8
279,2023-12-25T04:38:00,0.1,静穏,0.6,南南東,-1.2,90.8,0,0,0,0,0,0,1012,1026.8
280,2023-12-25T04:39:00,0.1,静穏,0.6,南南東,-1.3,90.9,0,0,0,0,0,0,1011.9,1026.7
281,2023-12-25T04:40:00,0.1,静穏,0.6,南南東,-1.3,91.3,0,0,0,0,0,0,1011.9,1026.7
282,2023-12-25T04:41:00,0.2,静穏,0.8,東,-1.3,91.7,0,0,0,0,0,0,1011.9,1026.7
283,2023-12-25T04:42:00,0.2,静穏,0.8,東,-1.2,91.9,0,0,0,0,0,0,1012,1026.8
284,2023-12-25T04:43:00,0.2,静穏,0.8,東,-1.2,92.1,0,0,0,0,0,0,1012,1026.8
285,2023-12-25T04:44:00,0.2,静穏,0.8,東,-1.1,92.2,0,0,0,0,0,0,1011.9,1026.7
286,2023-12-25T04:45:00,0.2,静穏,0.8,東,-1.1,92.2,0,0,0,0,0,0,1011.9,1026.7
287,2023-12-25T04:46:00,0.3,東,0.8,東,-1.1,92,0,0,0,0,0,0,1011.9,1026.7
288,2023-12-25T04:47:00,0.3,東北東,0.8,東,-1,92.2,0,0,0,0,0,0,1011.9,1026.7
289,2023-12-25T04:48:00,0.3,東北東,0.8,東,-1,91.6,0,0,0,0,0,0,1011.9,1026.7
290,2023-12-25T04:49:00,0.3,北東,0.8,東,-1,91.3,0,0,0,0,0,0,1012,1026.8
291,2023-12-25T04:50:00,0.3,北東,0.8,東,-1.2,90.7,0,0,0,0,0,0,1011.9,1026.7
292,2023-12-25T04:51:00,0.2,静穏,0.6,北東,-1.3,90.5,0,0,0,0,0,0,1011.9,1026.7
293,2023-12-25T04:52:00,0.2,静穏,0.6,北東,-1.3,90.6,0,0,0,0,0,0,1011.9,1026.7
294,2023-12-25T04:53:00,0.2,静穏,0.6,北東,-1.3,91,0,0,0,0,0,0,1011.9,1026.7
295,2023-12-25T04:54:00,0.2,静穏,0.6,北東,-1.2,91.4,0,0,0,0,0,0,1011.9,1026.7
296,2023-12-25T04:55:00,0.2,静穏,0.6,北東,-1.1,91.4,0,0,0,0,0,0,1011.9,1026.7
297,2023-12-25T04:56:00,0.2,静穏,0.7,北東,-1.1,91.5,0,0,0,0,0,0,1011.8,1026.6
298,2023-12-25T04:57:00,0.2,静穏,0.7,北東,-1,91.2,0,0,0,0,0,0,1011.8,1026.6
299,2023-12-25T04:58:00,0.2,静穏,0.7,北東,-1.1,90.9,0,0,0,0,0,0,1011.8,1026.6
300,2023-12-25T04:59:00,0.2,静穏,0.7,北東,-1,91.1,0,0,0,0,0,0,1011.8,1026.6
301,2023-12-25T05:00:00,0.1,静穏,0.7,北東,-1,91,0,0,0,0,0,0,1011.9,1026.7
302,2023-12-25T05:01:00,0.2,静穏,0.7,北東,-1.1,90.6,0,0,0,0,0,0,1011.8,1026.6
303,2023-12-25T05:02:00,0.2,静穏,0.7,北東,-1.1,90.5,0,0,0,0,0,0,1011.8,1026.6
304,2023-12-25T05:03:00,0.2,静穏,0.7,北東,-1.1,90.9,0,0,0,0,0,0,1011.8,1026.6
305,2023-12-25T05:04:00,0.2,静穏,0.7,北東,-1.2,90.6,0,0,0,0,0,0,1011.7,1026.5
306,2023-12-25T05:05:00,0.2,静穏,0.7,北東,-1.2,90.7,0,0,0,0,0,0,1011.8,1026.6
307,2023-12-25T05:06:00,0.2,静穏,0.7,西南西,-1.2,91.1,0,0,0,0,0,0,1011.8,1026.6
308,2023-12-25T05:07:00,0.2,静穏,0.7,西南西,-1.3,90.8,0,0,0,0,0,0,1011.8,1026.6
309,2023-12-25T05:08:00,0.2,静穏,0.7,西南西,-1.3,91.2,0,0,0,0,0,0,1011.8,1026.6
310,2023-12-25T05:09:00,0.2,静穏,0.7,西南西,-1.4,90.9,0,0,0,0,0,0,1011.8,1026.6
311,2023-12-25T05:10:00,0.3,西北西,0.7,西南西,-1.4,91,0,0,0,0,0,0,1011.8,1026.6
312,2023-12-25T05:11:00,0.3,西北西,0.7,西南西,-1.4,91.1,0,0,0,0,0,0,1011.8,1026.6
313,2023-12-25T05:12:00,0.3,西,1,西南西,-1.4,91.2,0,0,0,0,0,0,1011.9,1026.7
314,2023-12-25T05:13:00,0.3,西,1,西南西,-1.4,91.5,0,0,0,0,0,0,1011.9,1026.7
315,2023-12-25T05:14:00,0.3,西,1,西南西,-1.6,91.5,0,0,0,0,0,0,1011.9,1026.7
316,2023-12-25T05:15:00,0.3,西,1,西南西,-1.5,92,0,0,0,0,0,0,1011.9,1026.7
317,2023-12-25T05:16:00,0.3,西,1,西南西,-1.2,92.9,0,0,0,0,0,0,1012,1026.8
318,2023-12-25T05:17:00,0.4,西,1,西南西,-1.1,92.9,0,0,0,0,0,0,1012,1026.8
319,2023-12-25T05:18:00,0.4,西,1,西南西,-1.3,92,0,0,0,0,0,0,1012,1026.8
320,2023-12-25T05:19:00,0.4,西,1,西南西,-1.1,91.9,0,0,0,0,0,0,1011.9,1026.7
321,2023-12-25T05:20:00,0.4,西北西,1,西南西,-1.2,91.4,0,0,0,0,0,0,1011.9,1026.7
322,2023-12-25T05:21:00,0.4,西北西,1,西南西,-1.3,91.4,0,0,0,0,0,0,1011.9,1026.7
323,2023-12-25T05:22:00,0.4,西北西,0.9,北西,-1.1,91.2,0,0,0,0,0,0,1012,1026.8
324,2023-12-25T05:23:00,0.4,西北西,1,西北西,-1.1,91.1,0,0,0,0,0,0,1012,1026.8
325,2023-12-25T05:24:00,0.5,北西,1.1,北西,-1.1,90.4,0,0,0,0,0,0,1012,1026.8
326,2023-12-25T05:25:00,0.6,北西,1.1,北西,-1.1,89.7,0,0,0,0,0,0,1012,1026.8
327,2023-12-25T05:26:00,0.7,北西,1.2,西北西,-1.3,88.7,0,0,0,0,0,0,1012,1026.8
328,2023-12-25T05:27:00,0.8,北西,1.2,西北西,-1.3,88.4,0,0,0,0,0,0,1011.9,1026.7
329,2023-12-25T05:28:00,0.8,北西,1.3,西北西,-1.3,88.2,0,0,0,0,0,0,1011.9,1026.7
330,2023-12-25T05:29:00,0.9,北西,1.3,西北西,-1.4,88.1,0,0,0,0,0,0,1012,1026.8